STARLINK-35699, 66557

Orbit data source: Space-Track

STARLINK-35699, 66557 is a payload satellite owned by SpaceX/Seattle (US) in LEO that was launched on Fri, 21 Nov 2025 UTC via an FALCON 9 launch vehicle from the Air Force Eastern Test Range (AFETR). Payload-class satellites include a variety of spacecraft equipped with specific instruments for various scientific and technological missions. These include communications satellites like Starlink; space stations such as the ISS; scientific satellites like the Hubble; Earth observation satellites from companies like Planet Labs, Umbra, and HawkEye 360; GPS; miniature CubeSats for education and research; and military/defense satellites.

Loading next visibility...
Identifier
66557, 2025-268A
Orbit
LEO
Country
Flag of USUS
Related business
Manufacturer
SpaceX/Seattle
Mission
Operational Commercial Communications
Bus & Motor
STARLINK V2MO, Unknown motor
Mass
575 kg wet, ~530 kg dry
Launch date (UTC)
2025-11-21 (7 months ago)
Launch vehicle
FALCON 9
Launch site
Air Force Eastern Test Range (AFETR)
Object type
Payload
Rocket body
Debris
Shape & HBR
Box + 2 Pan, 17.7 m
Radar Cross Section
36.964 m², Large (>1 m²)

Expand to show TLE details & history
Last TLE update: 15 hours ago

TLE from 15 hours ago
0 STARLINK-35699
1 66557U 25268A   26171.27310926  .00011064  00000-0  41084-3 0  9991
2 66557  43.0025 128.1555 0001918 250.4343 109.6302 15.27590693 33646
Epoch: 2026-06-20T06:33Z
TLE epoch observation values (Epoch: 2026-06-20T06:33:16.640Z)
Latitude
0.00002°
Longitude
121.34609°
Altitude
483.235 km
Speed
7.625 km/s
True Right ascension
08h 32m 37s
True Declination
0° 00' 00"
Sunlit
Object was in daylight at epoch
Visualization orbit readout
Latitude
Unknown
Longitude
Unknown
Altitude
Unknown
Speed
Unknown
Apparent Right ascension
Unknown
Apparent Declination
Unknown
Sunlit
N/A
Visualization observer readout
Local Sidereal Time
08:33:28
Azimuth
Unknown
Elevation
Unknown
Doppler factor
Unknown
Orbital elements
Apogee altitude
486.278 km
Perigee altitude
483.645 km
Semi-major axis
6,863.099 km
Eccentricity
0.00019
Inclination
43.0025°
RAAN
128.1555°
Arg. of periapsis
250.4343°
True anomaly
109.6509°
Mean anomaly
109.6302°
Eccentric anomaly
109.64055°
Mean motion
3.81736 °/min
Orbital period
94.31 mins
BSTAR
0.00041084
Loading maneuver chart data...
Computing Atmospheric mass density...
Loading historical data...
Loading historical data...
Loading historical data...
Loading historical data...
Loading historical data...
Loading historical data...
Loading historical data...

Documentation

Showing up to 5 results
|